Wetbulb
48.12 47.52 46.89 46.77 46.58 46.46 47.17 48.01 48.95 49.71 50.07 50.50 50.62 50.60 50.47 48.20 46.88 45.21 41.54 42.24 37.40 29.34 28.25 28.25 29.68 27.68 26.36 27.30 21.12 21.98 19.45 19.30 18.02 8.65 9.55 9.91 7.07 4.49 3.04 3.15 0.68 -0.09 -5.11 -6.42 -8.67 -13.39 -6.23 7.69 6.35 -2.98 -1.47 2.91 3.62 6.47
47.69 46.97 46.61 46.36 46.42 46.73 47.43 48.71 49.31 49.97 50.14 50.33 50.25 49.28 48.28 47.83 47.61 44.96 38.87 40.53 40.45 33.80 28.14 31.20 32.45 33.46 33.33 32.83 29.37 27.78 20.39 20.59 19.29 10.48 8.28 9.20 8.06 -1.69 -1.28 3.15 6.76 1.63 0.45 -0.15 -4.78 -5.72 1.35 7.49 4.91 5.55 5.55 5.98 7.38 7.13
47.56 47.91 47.62 47.30 47.06 47.59 48.43 49.02 49.50 49.96 50.08 50.16 49.20 48.34 47.44 47.34 46.32 44.90 39.30 36.69 33.35 31.52 26.65 25.14 25.53 29.54 32.40 31.47 33.98 28.25 23.53 25.66 22.95 20.09 12.73 12.39 8.10 13.93 2.97 5.80 6.93 8.47 9.61 6.89 5.93 4.78 6.89 6.97 9.43 9.57 6.11 6.68 8.85 9.51
48.55 48.23 48.28 48.15 48.20 48.44 48.87 49.18 49.47 49.71 49.87 49.16 48.11 47.04 46.03 45.72 45.10 42.53 34.84 33.64 35.73 31.12 23.00 21.76 30.08 26.27 30.02 28.74 29.60 29.96 31.29 28.20 26.25 21.30 14.58 15.09 11.74 18.39 8.55 6.14 3.02 4.55 7.29 4.57 6.15 7.19 8.55 9.51 9.20 9.45 9.41 10.10 9.35 9.45
48.55 48.76 48.58 48.63 48.76 49.03 49.05 49.12 49.51 49.58 48.95 47.57 46.45 45.34 44.28 42.96 41.68 36.68 37.08 37.24 37.89 27.79 12.17 20.14 26.54 27.92 25.29 23.79 24.74 26.01 25.45 24.33 21.18 12.18 15.52 7.98 16.19 13.72 8.56 5.59 0.27 5.85 2.60 0.34 0.42 6.24 6.41 7.58 10.93 11.64 9.20 8.80 9.63 9.11
48.80 48.93 48.99 48.79 48.79 49.06 49.19 49.26 49.34 48.67 47.21 46.09 44.80 43.44 41.89 41.62 40.57 33.08 31.29 36.48 36.68 35.82 27.72 12.93 24.85 26.01 23.65 22.45 23.98 23.43 24.51 22.39 17.33 15.10 12.20 15.06 14.73 12.99 2.94 -2.17 4.21 6.53 8.57 8.62 4.98 8.84 9.11 11.33 11.47 11.36 9.26 9.80 9.95 9.39
48.85 48.91 48.93 48.80 48.89 49.02 49.12 49.21 48.69 46.95 45.80 44.23 42.87 41.99 42.53 40.49 33.94 28.87 26.54 33.45 36.37 34.91 26.15 15.42 12.00 20.41 19.53 22.03 19.66 19.83 21.18 19.13 19.32 13.53 12.43 8.73 6.22 7.57 1.39 -5.02 2.30 5.19 6.63 9.67 8.80 8.82 6.95 8.88 6.83 10.42 10.63 10.56 11.75 9.95
48.68 48.70 48.79 48.85 48.84 48.95 49.02 48.75 46.58 44.93 43.72 42.22 40.35 41.86 41.29 40.43 38.17 30.64 30.93 33.36 32.64 31.10 26.17 7.77 7.23 12.83 17.33 14.93 11.54 12.59 11.22 12.80 12.45 12.98 10.86 5.25 4.90 3.01 -5.44 0.63 2.67 3.83 4.98 5.81 5.26 8.58 9.14 10.11 9.84 8.95 9.97 9.58 7.74 7.24
48.31 48.38 48.47 48.67 48.70 48.77 48.68 45.92 44.07 43.12 42.09 40.43 40.66 40.02 33.05 29.30 25.88 28.81 37.01 32.25 24.26 23.43 7.83 1.56 -4.18 0.85 13.74 10.83 11.03 7.82 5.06 3.04 10.97 6.42 5.77 4.50 -3.58 -8.83 -3.23 -1.11 -0.04 2.16 1.05 1.39 4.46 6.01 7.24 6.93 7.20 7.53 7.35 7.05 5.81 5.79
48.17 48.22 48.35 48.48 48.42 48.40 45.92 43.40 42.57 41.72 38.79 39.51 32.64 28.10 19.82 27.13 36.61 34.85 22.27 16.06 10.70 5.15 3.88 -2.10 -0.94 0.49 7.11 3.65 0.64 -1.70 -9.84 -2.85 -1.51 3.60 3.85 -5.97 -6.08 0.55 0.97 2.22 1.46 1.45 2.56 2.91 -0.42 -0.39 2.04 2.99 4.87 5.33 5.48 6.75 7.14 6.94
48.21 48.15 48.17 48.17 48.03 46.99 43.32 41.90 41.28 38.39 35.25 27.74 19.50 17.11 27.29 30.78 24.14 13.18 3.76 3.54 -2.28 -2.88 0.88 -1.39 -1.73 -2.66 5.82 -2.43 -5.82 -4.87 -9.29 -4.62 -0.84 2.48 -5.04 -10.28 -10.39 -3.94 0.45 -0.12 1.05 2.01 1.97 1.96 2.67 3.36 4.13 4.04 4.14 4.86 5.35 6.39 7.42 7.92
48.14 48.05 47.99 47.98 47.29 43.81 42.16 40.87 38.55 33.64 31.33 29.44 27.64 26.89 20.95 10.94 5.23 4.66 -10.97 -2.62 -2.16 -4.50 -2.22 -6.93 -1.96 -2.38 -0.74 5.72 -3.90 0.15 -2.83 3.70 -5.06 4.48 -7.70 -14.60 -5.13 -1.75 -1.10 -1.19 0.45 1.10 0.85 0.72 2.05 1.57 3.22 3.67 4.44 5.37 6.43 6.41 7.13 8.31
48.10 47.98 47.98 47.76 44.45 42.60 40.55 37.78 36.64 37.12 34.53 27.72 20.16 12.27 10.92 4.30 1.69 -3.76 -10.88 -6.42 -5.59 -1.28 -7.30 -3.31 -4.10 -7.45 -0.21 2.37 -2.65 -4.01 -2.28 -1.68 4.71 -8.33 -12.24 -9.70 -4.46 -2.21 -2.02 -0.48 -0.44 0.91 0.92 1.06 1.14 2.47 3.03 3.28 5.02 5.20 5.57 7.29 7.89 7.42
47.94 47.80 47.74 45.21 42.40 39.48 37.39 36.50 37.41 33.52 26.69 16.41 13.97 6.81 1.87 -0.66 0.11 -1.07 -2.69 -6.48 -1.38 -7.87 -2.17 -1.74 -11.52 -8.45 -4.24 -2.70 -1.66 -8.06 -2.83 -1.89 -10.29 -18.40 -16.88 -10.85 -7.91 -4.25 -2.27 -1.20 -2.28 -2.53 -0.50 -0.31 0.05 0.31 0.33 1.91 3.00 5.29 6.71 7.32 7.42 6.74
47.74 47.44 44.04 41.41 39.20 37.18 36.66 34.40 30.70 23.90 18.71 12.09 12.75 3.24 2.84 4.69 0.89 -5.83 -6.91 -4.88 -5.89 -13.24 -8.51 -10.86 -6.92 -6.83 -6.63 -7.68 -9.66 -8.94 -16.39 -23.00 -16.87 -17.86 -12.48 -6.27 -7.68 -11.00 -5.71 -7.83 -5.75 -4.09 -1.69 -0.59 -0.79 -0.77 -0.33 1.02 1.96 3.56 6.05 6.92 7.51 7.86
47.22 42.42 39.62 39.62 37.28 36.94 34.35 29.33 25.34 21.62 12.93 8.49 4.30 4.74 6.87 2.95 -3.92 -4.00 -10.21 -9.46 -6.87 -7.60 -9.04 -6.58 -15.20 -14.85 -16.92 -20.15 -20.30 -25.40 -28.19 -28.34 -19.98 -18.37 -11.02 -5.10 -10.08 -18.08 -9.85 -9.14 -4.71 -6.15 -2.18 -1.16 -1.32 -1.00 -0.32 0.20 1.80 3.67 5.31 6.48 7.07 8.06
42.30 36.78 38.51 37.67 37.15 34.09 30.47 22.54 18.17 11.34 8.23 4.74 0.64 4.57 2.81 -0.30 -3.34 -2.40 -3.12 -3.36 -3.58 -6.78 -14.22 -17.13 -19.92 -19.63 -17.23 -24.65 -25.50 -22.29 -26.51 -18.06 -13.66 -7.65 -5.80 -11.87 -13.82 -12.31 -9.60 -4.54 -7.71 -4.93 -2.51 -2.96 -2.71 -1.96 -1.39 1.07 3.39 2.29 2.03 4.52 6.41 7.85
34.54 36.50 37.10 35.19 30.32 26.11 18.53 17.69 13.31 9.89 3.67 4.60 1.67 1.60 2.28 1.14 -1.52 -0.79 -1.10 -0.74 -4.82 -2.36 -7.27 -16.82 -12.22 -22.79 -27.18 -27.09 -22.70 -20.34 -21.09 -16.50 -10.27 -8.58 -7.82 -8.01 -14.03 -11.94 -8.18 -8.10 -9.09 -9.15 -6.96 -5.97 -4.55 -3.19 -0.42 0.02 1.19 1.50 3.62 5.70 6.13 5.74
34.64 34.99 36.64 34.14 29.57 21.99 16.29 12.40 13.55 5.27 5.61 6.07 5.03 4.47 5.10 3.70 2.63 1.45 -0.28 -0.89 -4.84 -5.15 -8.40 -18.54 -23.76 -25.31 -16.74 -16.66 -19.15 -9.58 -10.88 -7.23 -6.73 -5.29 -10.35 -14.10 -11.36 -12.97 -9.03 -9.80 -9.66 -11.83 -12.29 -13.99 -8.49 -4.76 -1.34 -1.87 1.59 2.65 4.31 6.44 4.00 3.70
37.27 37.04 34.99 31.25 27.43 18.05 11.69 9.29 14.51 8.04 4.14 5.41 5.54 2.95 2.96 1.38 0.31 -2.57 -3.81 -2.81 -6.78 -13.96 -15.19 -21.35 -19.41 -15.47 -14.88 -15.72 -11.17 -4.90 -3.60 -2.60 -3.99 -6.42 -7.47 -9.40 -8.13 -9.81 -5.36 -8.20 -6.03 -9.79 -8.19 -9.73 -5.77 2.94 0.60 -2.00 1.32 1.99 4.18 4.66 2.82 1.79
30.00 27.98 26.34 20.45 15.43 11.08 8.65 8.33 5.76 6.33 5.36 1.58 1.03 3.19 -2.01 -3.15 -7.42 -13.36 -15.77 -6.58 -13.64 -24.23 -19.05 -16.66 -16.81 -14.51 -14.68 -15.85 -13.08 -5.19 -4.64 -4.06 -7.03 -6.81 -7.01 -6.53 -1.76 -3.69 -5.04 -4.66 -5.35 -5.04 -6.11 -5.24 -4.00 -2.58 -1.70 -3.22 -0.24 3.10 0.55 1.39 3.44 2.98
26.52 27.91 19.71 20.06 12.25 9.88 6.54 7.01 6.31 6.35 2.46 0.61 -0.83 -1.84 -9.33 -11.10 -15.54 -16.05 -16.36 -19.97 -24.26 -13.08 -13.78 -13.86 -13.46 -12.08 -11.21 -13.69 -12.70 -13.10 -8.31 -7.86 -7.86 -5.44 -2.02 -1.66 -6.32 -6.56 -6.23 -4.10 -4.59 -7.18 -6.91 -5.24 -3.22 -2.61 -3.07 -1.15 1.64 3.66 -0.59 1.16 1.94 2.17
25.59 21.59 17.75 17.08 10.34 8.61 2.87 7.01 2.96 1.71 0.65 -4.21 -6.59 -7.45 -12.01 -16.97 -16.18 -12.41 -19.31 -21.10 -14.08 -10.78 -9.69 -9.28 -12.16 -13.91 -12.37 -13.71 -15.41 -10.68 -8.49 -9.77 -9.49 -7.16 -6.20 -6.54 -5.40 -4.83 -4.35 -4.90 -6.26 -7.15 -7.47 -5.57 -2.38 -1.90 -2.45 1.98 -0.71 1.54 -0.30 -0.79 -0.64 -0.38
20.71 11.78 9.65 8.57 8.55 0.71 4.77 0.78 2.30 -0.87 -2.33 -3.79 -7.29 -10.26 -12.98 -16.76 -16.34 -20.32 -19.34 -17.21 -10.17 -8.79 -6.40 -9.58 -10.05 -11.39 -12.67 -14.52 -12.63 -8.80 -5.96 -7.42 -10.65 -8.11 -6.06 -7.53 -8.74 -8.13 -6.87 -8.37 -8.12 -7.38 -5.28 -3.54 -2.43 -2.57 -2.92 -3.21 0.33 -2.43 -2.62 -3.72 -3.52 -2.42
15.44 6.24 8.69 3.33 5.84 4.72 1.85 -0.26 -1.71 -0.76 -5.66 -8.38 -9.66 -11.22 -13.77 -17.50 -19.90 -24.33 -17.92 -13.03 -16.05 -11.29 -8.92 -9.29 -9.35 -7.87 -5.99 -6.07 -7.83 -6.95 -6.19 -5.42 -10.90 -10.94 -9.59 -9.74 -8.74 -7.98 -8.54 -6.57 -6.90 -5.81 -3.19 -4.33 -4.61 -4.58 -5.02 -4.33 -4.32 -4.35 -4.78 -6.13 -6.20 -3.74
4.51 2.25 6.04 5.95 3.68 4.32 2.32 -1.27 -2.15 -4.31 -5.82 -10.72 -12.21 -16.01 -21.79 -20.41 -20.65 -17.71 -13.41 -12.92 -10.54 -10.68 -9.30 -7.60 -5.53 -3.63 -4.96 -5.22 -5.12 -6.58 -8.18 -5.99 -8.38 -13.18 -11.99 -9.55 -9.58 -9.94 -14.34 -11.77 -11.17 -7.93 -2.42 -1.96 -4.03 -5.16 -4.83 -4.09 -4.21 -7.26 -7.44 -6.74 0.60 -3.05
2.88 1.25 2.86 6.61 4.54 2.30 -0.63 -1.34 -1.80 -2.80 -7.82 -8.57 -10.72 -18.05 -18.44 -19.54 -20.13 -11.03 -9.57 -11.66 -8.92 -7.17 -4.08 -2.58 -1.89 -4.19 -5.68 -5.28 -3.86 -5.50 -7.45 -11.91 -12.43 -11.52 -8.43 -8.32 -7.36 -5.95 -5.72 -8.52 -10.18 -5.53 -1.71 -1.52 -2.25 -3.44 -3.89 -3.41 -3.90 -5.50 -7.27 -6.99 -8.83 -11.21
4.25 5.63 1.36 0.94 0.13 1.12 -2.16 -3.30 -4.68 -6.63 -7.16 -7.23 -8.25 -15.57 -13.00 -10.82 -7.34 -6.94 -7.03 -10.35 -11.27 -11.07 -11.39 -11.08 -9.95 -8.22 -7.84 -8.67 -9.76 -10.05 -14.12 -16.61 -16.19 -17.43 -15.97 -10.35 -6.05 -5.27 -7.48 -3.86 -2.74 4.07 1.18 -1.27 -0.31 -1.51 -2.48 -4.49 -4.73 -4.70 -6.26 -6.94 -9.30 -12.24
2.74 3.69 3.92 -2.23 -1.78 -3.79 -5.22 -3.87 -4.47 -4.95 -3.73 -8.04 -10.22 -11.54 -12.00 -7.43 -9.97 -10.39 -7.33 -7.60 -12.77 -10.94 -13.66 -14.00 -13.53 -18.64 -18.80 -17.98 -18.91 -19.95 -20.56 -18.96 -19.97 -22.97 -23.52 -19.10 -15.61 -10.72 -10.08 -7.09 -8.38 -7.36 -5.30 -8.87 -1.80 0.67 -0.99 1.47 -4.25 -7.35 -12.79 -13.06 -13.40 -16.27
2.33 3.68 -0.27 -2.50 -3.08 -6.40 -10.19 -11.68 -13.20 -14.62 -10.04 -9.67 -7.68 -8.35 -7.33 -9.85 -12.30 -13.46 -9.12 -12.50 -11.59 -13.08 -16.03 -17.50 -20.00 -22.85 -21.20 -21.70 -21.59 -19.09 -19.20 -20.47 -18.98 -18.34 -23.77 -19.46 -16.21 -9.31 -8.06 -9.30 -8.53 -8.22 -12.67 -15.96 -17.19 -18.41 -3.77 -13.67 -14.32 -18.63 -14.60 -12.76 -11.21 -9.80
1.77 0.69 -4.02 -6.42 -10.76 -12.86 -13.98 -14.82 -14.34 -8.20 -17.79 -21.11 -20.28 -13.91 -11.01 -14.65 -9.88 -10.52 -10.05 -11.47 -13.55 -20.00 -18.50 -19.84 -22.59 -27.38 -22.16 -22.63 -24.37 -23.61 -20.32 -19.02 -23.03 -20.35 -20.35 -16.46 -14.28 -10.67 -9.23 -7.06 -7.52 -13.95 -17.51 -21.20 -22.88 -22.79 -24.74 -22.39 -21.77 -22.29 -19.24 -19.84 -16.78 -13.35
-2.57 -5.45 -3.44 -6.42 -10.83 -14.21 -16.10 -21.98 -24.21 -21.09 -22.39 -18.20 -17.36 -23.77 -17.91 -13.21 -12.31 -9.65 -9.96 -13.93 -17.28 -15.18 -7.29 -13.35 -19.46 -15.61 -14.38 -14.77 -16.94 -17.38 -3.03 -15.76 -18.31 -17.40 -17.76 -12.43 -7.85 -4.76 -4.83 -14.80 -20.55 -18.81 -21.23 -22.81 -24.74 -25.69 -26.42 -28.43 -26.53 -24.83 -22.42 -25.53 -24.44 -24.13
-6.44 -7.87 -8.36 -10.12 -13.83 -16.57 -16.68 -16.80 -17.32 -17.51 -18.99 -19.35 -17.00 -19.11 -20.29 -13.86 -10.34 -7.55 -13.06 -13.83 -8.33 -6.93 -8.59 -9.91 -11.86 -12.71 -13.41 -14.99 -14.89 -14.61 -7.65 -18.60 -17.01 2.02 3.83 7.83 8.59 3.93 -9.14 -21.09 -14.40 -16.97 -20.17 -20.46 -23.76 -25.95 -27.00 -29.30 -28.25 -29.95 -30.47 -29.90 -28.49 -28.80
MSLP
1026.27 1025.79 1025.30 1024.81 1024.39 1023.98 1023.44 1022.90 1022.33 1021.65 1020.95 1020.35 1019.76 1019.20 1018.68 1018.67 1018.58 1018.55 1018.41 1018.71 1019.15 1019.24 1018.70 1018.62 1018.64 1018.57 1018.48 1018.59 1018.18 1017.75 1017.99 1017.91 1018.11 1018.95 1019.83 1020.32 1020.77 1020.63 1021.20 1021.59 1022.19 1022.97 1023.87 1024.16 1024.75 1025.03 1024.97 1024.30 1023.92 1024.73 1026.12 1025.42 1025.30 1025.02
1025.61 1025.14 1024.67 1024.28 1023.82 1023.35 1022.80 1022.20 1021.61 1021.03 1020.42 1019.88 1019.39 1018.96 1018.74 1018.49 1018.24 1018.31 1018.57 1018.49 1018.73 1019.35 1018.62 1018.29 1017.96 1017.69 1017.65 1017.86 1017.97 1017.88 1018.23 1018.49 1018.72 1019.47 1020.48 1020.86 1021.13 1021.48 1021.45 1022.56 1022.91 1023.88 1024.69 1025.24 1025.64 1025.64 1025.68 1025.66 1025.81 1026.30 1026.37 1026.02 1025.10 1025.16
1024.94 1024.47 1024.24 1023.80 1023.33 1022.74 1022.18 1021.61 1021.00 1020.48 1019.97 1019.47 1019.03 1018.70 1018.52 1018.23 1018.08 1018.12 1018.43 1018.77 1019.12 1019.07 1018.43 1018.39 1017.94 1017.69 1017.45 1017.64 1017.74 1017.84 1017.95 1017.94 1018.67 1019.11 1020.26 1020.83 1021.00 1020.74 1021.74 1022.65 1023.42 1024.44 1024.74 1024.97 1025.39 1026.02 1025.85 1026.08 1026.06 1026.18 1026.23 1026.16 1025.84 1025.28
1024.33 1023.92 1023.57 1023.06 1022.48 1021.94 1021.45 1020.94 1020.40 1019.87 1019.36 1019.03 1018.95 1018.80 1018.55 1018.25 1018.00 1017.93 1018.61 1018.84 1018.84 1019.13 1019.30 1018.58 1017.95 1017.99 1017.85 1017.75 1017.56 1017.75 1017.97 1018.21 1018.33 1019.28 1020.09 1020.67 1020.96 1020.69 1022.30 1023.69 1025.08 1026.53 1025.99 1026.05 1025.87 1026.03 1026.02 1026.06 1026.13 1026.13 1025.89 1025.73 1025.44 1025.10
1023.54 1023.10 1022.67 1022.26 1021.77 1021.23 1020.71 1020.20 1019.83 1019.53 1019.18 1018.79 1018.49 1018.25 1017.96 1017.64 1017.60 1018.30 1018.78 1019.03 1018.71 1019.29 1019.48 1019.03 1018.62 1018.50 1018.48 1018.29 1017.90 1017.80 1018.05 1018.38 1018.93 1019.93 1020.53 1021.14 1021.32 1022.09 1023.96 1025.40 1027.36 1027.94 1027.94 1027.61 1027.07 1027.23 1027.08 1026.37 1026.17 1026.07 1025.93 1025.67 1025.36 1024.99
1022.70 1022.25 1021.74 1021.34 1020.94 1020.47 1020.08 1019.67 1019.19 1018.74 1018.57 1018.46 1018.16 1017.76 1017.67 1017.64 1017.82 1018.25 1018.67 1019.27 1019.33 1019.42 1019.64 1019.86 1019.64 1019.44 1019.26 1018.91 1018.68 1018.57 1018.66 1019.00 1019.56 1020.09 1021.07 1022.09 1023.33 1023.22 1025.33 1027.53 1029.17 1029.14 1028.83 1028.52 1028.25 1027.69 1027.14 1026.71 1026.50 1026.32 1026.06 1025.77 1025.45 1025.16
1021.77 1021.40 1020.96 1020.57 1020.15 1019.77 1019.35 1018.89 1018.58 1018.45 1018.35 1018.25 1017.98 1017.79 1017.41 1017.82 1018.32 1018.81 1019.33 1019.15 1018.99 1019.40 1020.24 1020.88 1021.01 1020.73 1020.52 1020.15 1020.00 1019.93 1019.82 1020.15 1020.40 1021.33 1022.36 1024.09 1025.20 1025.72 1027.89 1029.69 1030.37 1030.05 1029.57 1028.89 1028.71 1027.98 1027.35 1027.14 1026.94 1026.57 1026.23 1025.84 1025.52 1025.26
1020.85 1020.49 1020.14 1019.79 1019.44 1019.12 1018.68 1018.37 1018.31 1018.18 1018.06 1017.91 1017.92 1018.00 1018.10 1018.14 1018.43 1018.99 1019.54 1019.32 1018.97 1019.56 1020.88 1022.77 1023.07 1022.47 1022.52 1022.42 1022.31 1021.92 1021.79 1021.59 1022.16 1022.78 1024.37 1025.96 1027.40 1028.73 1030.69 1031.54 1031.39 1031.01 1030.30 1029.68 1029.38 1028.76 1028.23 1027.69 1027.20 1026.79 1026.42 1026.02 1025.61 1025.29
1020.04 1019.64 1019.33 1019.04 1018.71 1018.46 1018.15 1018.09 1018.09 1018.00 1017.89 1017.73 1017.92 1018.32 1018.77 1019.25 1019.61 1019.80 1019.31 1019.63 1020.35 1021.64 1023.52 1025.74 1026.87 1026.06 1024.52 1024.52 1024.28 1023.66 1023.64 1023.62 1023.77 1024.57 1026.34 1027.71 1030.32 1032.00 1033.00 1032.72 1032.36 1031.94 1031.61 1030.97 1030.07 1029.31 1028.63 1028.08 1027.61 1027.13 1026.68 1026.21 1025.89 1025.49
1019.01 1018.73 1018.43 1018.15 1017.86 1017.68 1017.67 1017.89 1017.85 1017.79 1017.65 1017.76 1018.05 1018.82 1019.67 1020.09 1019.59 1019.56 1019.89 1020.77 1022.26 1024.95 1026.31 1029.09 1029.45 1028.51 1027.78 1027.16 1026.19 1026.32 1026.18 1025.70 1025.95 1026.93 1027.71 1029.94 1032.77 1033.75 1033.88 1033.52 1033.28 1032.73 1032.14 1031.54 1030.76 1029.80 1029.20 1028.55 1028.00 1027.42 1026.94 1026.47 1026.01 1025.58
1017.76 1017.60 1017.36 1017.19 1017.03 1017.04 1017.36 1017.60 1017.64 1017.72 1017.97 1018.48 1019.23 1019.72 1019.97 1019.91 1020.44 1022.04 1023.62 1025.10 1027.23 1029.26 1030.43 1031.00 1030.98 1030.44 1028.84 1029.15 1028.87 1028.86 1028.48 1027.17 1027.04 1028.08 1029.30 1031.93 1033.80 1034.62 1034.42 1034.09 1033.72 1033.14 1032.56 1032.02 1031.52 1030.80 1030.06 1029.36 1028.53 1027.73 1027.03 1026.49 1025.98 1025.49
1016.70 1016.49 1016.43 1016.35 1016.32 1016.78 1017.09 1017.42 1017.56 1017.86 1018.39 1018.73 1019.34 1020.23 1020.81 1022.41 1023.96 1025.41 1028.48 1029.53 1030.58 1032.21 1032.46 1032.37 1031.98 1031.51 1030.36 1029.60 1029.62 1029.24 1029.13 1028.14 1028.63 1029.32 1031.12 1033.62 1035.01 1035.11 1034.92 1034.53 1034.07 1033.49 1032.83 1032.24 1031.67 1031.00 1030.16 1029.41 1028.69 1027.95 1027.25 1026.63 1026.05 1025.51
1015.79 1015.64 1015.75 1015.73 1016.25 1016.76 1017.06 1017.39 1017.67 1017.75 1018.40 1019.20 1020.16 1022.29 1023.84 1026.19 1028.23 1030.45 1032.32 1033.05 1033.28 1033.47 1033.76 1033.68 1033.26 1032.14 1031.05 1030.65 1030.36 1030.47 1030.06 1030.14 1030.10 1031.69 1033.83 1035.36 1035.95 1035.73 1035.39 1034.94 1034.47 1033.87 1033.16 1032.46 1031.76 1031.08 1030.32 1029.49 1028.67 1028.06 1027.34 1026.62 1026.03 1025.50
1014.93 1014.88 1015.17 1015.52 1016.22 1016.88 1017.30 1017.93 1018.02 1018.28 1019.00 1021.14 1023.04 1025.58 1027.75 1029.95 1031.84 1033.18 1034.32 1034.84 1034.60 1034.57 1034.66 1034.77 1034.54 1033.76 1032.59 1032.09 1031.88 1032.02 1032.45 1032.09 1033.12 1034.54 1035.83 1036.38 1036.53 1036.40 1035.98 1035.46 1035.01 1034.28 1033.51 1032.82 1032.18 1031.43 1030.64 1029.80 1028.90 1028.06 1027.40 1026.72 1026.10 1025.53
1014.12 1014.30 1014.99 1015.77 1016.44 1017.05 1017.67 1018.21 1018.54 1019.35 1021.50 1023.98 1025.42 1028.62 1030.46 1031.92 1033.05 1034.25 1035.01 1035.34 1035.28 1035.36 1035.38 1035.36 1035.21 1035.03 1034.36 1034.20 1034.69 1034.60 1035.36 1036.19 1036.62 1037.01 1037.14 1037.20 1037.08 1036.87 1036.49 1035.97 1035.38 1034.68 1033.80 1033.09 1032.55 1031.84 1030.98 1030.08 1029.17 1028.23 1027.43 1026.81 1026.19 1025.62
1013.43 1014.60 1015.00 1015.58 1016.43 1017.26 1018.11 1018.66 1019.46 1021.28 1024.65 1026.89 1028.82 1030.34 1031.52 1032.43 1033.98 1034.84 1035.31 1035.52 1035.38 1035.42 1035.34 1035.78 1036.37 1036.56 1037.18 1037.28 1037.65 1038.31 1038.71 1038.88 1038.43 1038.13 1037.69 1037.39 1037.34 1037.25 1036.95 1036.21 1035.45 1034.86 1034.12 1033.42 1032.79 1032.08 1031.23 1030.28 1029.37 1028.50 1027.63 1026.96 1026.35 1025.86
1013.19 1014.35 1015.36 1015.63 1016.40 1017.54 1018.46 1019.62 1021.83 1024.48 1026.82 1029.10 1031.07 1031.68 1032.36 1033.24 1034.42 1035.12 1035.57 1035.37 1034.95 1035.51 1036.60 1037.03 1038.19 1038.72 1038.71 1039.08 1039.48 1039.54 1039.66 1039.24 1038.53 1037.90 1037.56 1037.64 1037.62 1037.23 1036.65 1036.12 1035.59 1035.05 1034.36 1033.71 1032.95 1032.15 1031.29 1030.32 1029.37 1028.62 1027.85 1027.16 1026.63 1026.15
1013.52 1014.40 1015.04 1015.92 1016.60 1018.04 1020.42 1021.89 1024.09 1026.45 1028.95 1030.72 1031.72 1032.73 1033.34 1033.80 1034.52 1035.19 1035.56 1035.41 1035.59 1035.98 1036.73 1038.05 1038.69 1039.63 1040.60 1040.18 1039.98 1039.58 1039.21 1038.44 1037.71 1037.54 1037.38 1037.00 1036.82 1036.70 1036.46 1036.10 1035.63 1035.14 1034.59 1033.88 1033.07 1032.20 1031.23 1030.43 1029.58 1028.88 1028.10 1027.34 1026.86 1026.46
1013.17 1014.12 1015.06 1016.13 1016.69 1018.53 1021.98 1024.51 1025.29 1027.83 1030.04 1031.17 1032.24 1033.11 1033.85 1034.43 1035.00 1035.57 1035.86 1035.76 1035.91 1036.41 1037.33 1038.75 1040.15 1040.92 1040.36 1039.82 1039.29 1038.50 1038.10 1037.50 1037.08 1036.82 1036.74 1036.46 1036.40 1036.36 1036.09 1035.71 1035.37 1035.08 1034.63 1034.06 1033.15 1032.30 1031.32 1030.62 1029.91 1029.20 1028.40 1027.60 1027.26 1026.95
1013.39 1014.38 1015.35 1016.51 1017.05 1019.82 1023.54 1025.93 1026.29 1027.90 1030.30 1031.63 1032.59 1033.63 1034.44 1035.08 1035.72 1036.30 1036.55 1036.55 1036.80 1037.80 1039.02 1040.13 1040.45 1040.08 1039.48 1039.03 1038.43 1037.86 1037.31 1036.87 1036.62 1036.22 1036.06 1035.89 1035.70 1035.75 1035.58 1035.29 1035.02 1034.63 1034.13 1033.57 1032.79 1031.56 1031.07 1030.60 1029.88 1029.38 1028.61 1028.03 1027.67 1027.24
1014.05 1015.64 1016.26 1016.88 1019.73 1021.87 1024.89 1026.79 1027.99 1029.17 1030.55 1031.99 1033.49 1034.28 1035.46 1036.17 1037.07 1037.67 1037.96 1037.64 1038.15 1039.91 1040.00 1039.75 1039.54 1038.83 1038.25 1038.14 1037.84 1037.35 1037.02 1036.77 1036.62 1036.36 1035.77 1035.18 1034.86 1035.10 1034.90 1034.64 1034.44 1034.24 1033.98 1033.48 1032.75 1032.01 1031.49 1030.92 1030.17 1029.51 1029.15 1028.62 1028.00 1027.56
1014.47 1015.53 1016.67 1018.07 1020.91 1023.80 1026.14 1027.62 1028.40 1029.69 1030.97 1032.70 1034.07 1035.23 1036.54 1037.71 1038.73 1038.93 1038.78 1038.57 1039.20 1038.95 1038.73 1038.34 1038.30 1038.06 1037.94 1037.71 1037.37 1037.02 1036.70 1036.58 1036.35 1036.01 1035.41 1035.02 1034.88 1034.87 1034.64 1034.35 1034.15 1034.03 1033.71 1033.21 1032.59 1031.95 1031.62 1031.00 1030.13 1029.61 1029.47 1028.92 1028.54 1027.92
1014.56 1015.44 1017.26 1018.93 1021.76 1024.55 1028.22 1028.51 1028.95 1030.39 1031.90 1033.78 1035.16 1036.34 1037.72 1038.64 1039.07 1039.33 1039.46 1039.01 1038.43 1037.34 1037.14 1037.29 1037.23 1037.09 1037.33 1036.88 1036.66 1036.40 1036.32 1036.30 1036.27 1036.02 1035.64 1035.37 1035.13 1034.93 1034.56 1034.35 1034.28 1033.97 1033.49 1032.96 1032.54 1032.05 1031.61 1030.86 1030.57 1029.96 1029.74 1029.39 1028.98 1028.42
1014.87 1017.52 1019.61 1021.15 1022.62 1026.26 1027.93 1028.97 1029.75 1031.01 1032.70 1034.18 1035.58 1037.12 1038.33 1039.05 1039.50 1039.49 1039.62 1038.94 1037.34 1036.75 1036.76 1036.62 1036.59 1036.66 1036.75 1036.67 1036.46 1036.19 1036.03 1035.98 1036.14 1035.96 1035.69 1035.47 1035.22 1034.88 1034.67 1034.35 1034.00 1033.64 1033.28 1032.81 1032.38 1031.98 1031.61 1031.21 1030.67 1030.38 1030.06 1029.74 1029.30 1028.85
1015.98 1020.97 1021.37 1023.05 1024.06 1025.29 1027.21 1028.82 1030.13 1031.07 1032.92 1034.55 1035.99 1037.57 1038.50 1039.26 1039.81 1039.66 1039.33 1037.80 1037.03 1036.45 1036.24 1035.99 1035.97 1036.03 1036.05 1035.81 1035.76 1035.78 1035.67 1035.89 1036.11 1036.04 1035.61 1035.49 1035.30 1034.89 1034.49 1034.03 1033.58 1033.09 1032.62 1032.40 1032.11 1031.79 1031.43 1031.07 1030.71 1030.39 1030.14 1029.85 1029.28 1028.83
1018.60 1021.88 1022.35 1022.93 1024.16 1024.73 1026.80 1028.46 1029.82 1031.31 1032.78 1034.73 1036.22 1037.60 1038.45 1039.12 1039.29 1038.70 1037.76 1036.55 1036.08 1035.89 1035.69 1035.51 1035.42 1035.42 1035.41 1035.40 1035.41 1035.52 1035.71 1035.71 1035.95 1035.96 1035.53 1035.34 1035.24 1035.01 1034.54 1034.10 1033.49 1032.71 1032.25 1032.10 1031.85 1031.41 1031.05 1030.64 1030.36 1030.14 1029.99 1029.72 1029.33 1029.06
1020.15 1022.26 1023.07 1023.51 1024.00 1025.10 1027.25 1028.89 1029.98 1030.97 1032.72 1034.29 1035.74 1037.19 1037.89 1037.93 1037.60 1036.54 1035.35 1035.24 1035.35 1035.11 1034.83 1034.82 1035.00 1035.21 1035.32 1035.37 1035.35 1035.38 1035.52 1035.70 1035.86 1035.71 1035.28 1035.10 1034.79 1034.44 1034.19 1033.83 1033.24 1032.47 1031.96 1031.72 1031.37 1030.99 1030.47 1030.09 1029.84 1029.66 1029.54 1029.37 1029.23 1029.19
1021.37 1022.23 1023.08 1024.24 1024.86 1025.94 1027.66 1029.27 1030.42 1031.46 1032.66 1033.67 1034.77 1035.90 1035.96 1035.99 1035.36 1034.49 1034.44 1034.39 1034.63 1034.73 1034.99 1034.98 1034.99 1035.20 1035.46 1035.53 1035.53 1035.66 1035.75 1035.78 1035.56 1035.25 1034.81 1034.62 1034.23 1033.89 1033.73 1033.35 1032.90 1031.53 1031.23 1031.36 1030.74 1030.39 1030.01 1029.58 1029.31 1029.09 1029.08 1029.03 1028.86 1028.61
1022.11 1022.92 1023.45 1025.73 1026.54 1027.59 1029.08 1030.27 1031.28 1031.94 1032.43 1033.33 1033.96 1034.61 1034.37 1034.34 1033.96 1033.83 1034.01 1034.11 1034.39 1034.85 1035.49 1035.85 1035.61 1035.66 1035.73 1035.72 1035.82 1035.91 1036.05 1036.36 1036.44 1036.34 1035.90 1035.43 1034.60 1033.89 1033.51 1033.20 1032.90 1032.51 1032.00 1031.90 1031.08 1030.21 1029.40 1028.37 1028.55 1028.59 1028.91 1028.99 1028.67 1028.40
1023.12 1023.81 1024.69 1026.57 1028.02 1030.32 1031.88 1032.39 1032.71 1033.39 1033.40 1033.60 1033.74 1034.00 1034.07 1033.96 1033.71 1033.60 1033.87 1034.24 1034.73 1035.15 1035.18 1035.47 1035.75 1036.02 1036.46 1036.60 1036.66 1036.30 1036.02 1036.05 1036.15 1036.51 1036.36 1035.55 1034.52 1033.68 1033.32 1032.94 1032.63 1032.40 1032.51 1032.31 1031.85 1031.29 1030.19 1030.01 1029.66 1029.52 1029.47 1029.24 1028.90 1028.64
1023.75 1024.58 1026.23 1028.44 1030.89 1032.68 1033.56 1033.95 1033.94 1034.04 1034.57 1034.95 1035.17 1035.09 1034.97 1034.67 1033.76 1033.30 1033.50 1033.73 1034.20 1034.53 1035.02 1035.67 1035.72 1035.82 1035.99 1036.28 1036.58 1036.33 1036.21 1035.83 1035.79 1035.65 1035.31 1034.59 1033.77 1033.28 1032.71 1032.17 1032.06 1032.51 1032.77 1032.55 1032.28 1032.11 1031.95 1031.64 1031.42 1031.08 1030.78 1030.49 1030.14 1029.74
1025.10 1026.02 1027.17 1030.08 1032.82 1034.06 1034.61 1034.83 1035.37 1035.32 1036.03 1035.94 1036.05 1035.77 1035.47 1035.15 1034.37 1033.18 1032.75 1033.37 1034.05 1034.54 1034.29 1034.57 1035.19 1035.10 1035.05 1035.16 1035.32 1035.31 1035.07 1035.41 1035.34 1034.94 1034.33 1033.17 1031.98 1031.78 1031.67 1032.11 1032.57 1032.58 1032.81 1032.53 1032.45 1032.44 1032.48 1032.66 1032.36 1032.06 1031.75 1031.41 1031.04 1030.67
1026.78 1027.59 1028.59 1031.06 1033.54 1034.65 1035.03 1035.23 1035.97 1036.24 1035.98 1036.18 1036.11 1036.03 1035.99 1035.55 1034.44 1032.54 1032.24 1032.50 1032.75 1032.89 1033.21 1033.48 1033.61 1033.89 1034.13 1034.48 1034.81 1034.79 1033.98 1035.05 1034.87 1032.80 1032.10 1030.77 1029.97 1030.32 1031.37 1032.21 1031.94 1032.24 1032.43 1032.34 1032.44 1032.54 1032.71 1032.90 1032.74 1032.55 1032.32 1032.02 1031.61 1031.21
Wind_Speed
20 21 20 19 20 20 20 21 22 23 22 21 20 19 15 6 2 2 2 6 3 2 5 5 2 2 3 3 2 3 4 3 3 4 2 2 1 4 2 2 0 1 2 2 1 5 4 11 2 7 5 5 4 5
19 19 18 18 19 20 20 21 22 22 21 20 19 7 8 9 7 3 2 2 1 3 6 3 6 8 6 6 4 2 2 2 3 3 0 0 3 1 3 4 0 2 2 1 4 4 3 4 4 1 2 5 6 7
18 17 18 19 19 20 21 22 22 21 20 18 12 13 15 13 6 6 1 2 1 3 4 3 1 4 3 1 2 4 2 3 2 4 3 2 5 3 2 1 3 3 8 3 2 1 3 1 2 3 2 4 7 8
17 19 19 20 21 21 22 22 22 20 19 13 14 15 16 16 12 5 2 1 1 1 3 5 3 2 4 6 2 2 3 2 3 2 2 3 2 1 3 4 5 5 7 8 2 5 3 4 4 4 8 6 8 8
18 18 19 20 21 20 20 20 19 19 12 12 14 16 17 14 5 5 2 2 2 3 4 4 2 3 4 6 5 3 3 1 1 2 2 3 3 3 4 5 6 6 4 4 3 7 5 6 6 7 9 8 10 10
19 18 19 19 20 20 19 18 17 10 10 12 15 14 10 5 10 3 2 2 3 2 2 3 3 4 6 6 6 5 3 1 2 3 1 4 4 2 4 4 7 10 9 5 4 10 10 5 8 8 7 9 10 6
19 19 18 19 19 19 18 16 10 8 11 13 11 8 8 8 4 3 2 2 6 1 1 4 5 4 6 4 3 3 4 2 3 2 4 4 6 6 4 4 11 11 12 7 11 9 4 6 6 9 8 9 10 8
19 18 18 18 18 17 16 12 6 8 11 11 2 7 12 14 10 4 3 7 1 2 3 2 5 4 7 4 5 3 3 3 5 3 4 4 4 5 5 8 10 11 11 6 13 10 7 8 7 7 6 7 9 8
19 18 18 17 17 16 14 3 4 8 11 4 5 7 4 5 3 1 4 9 5 5 4 4 3 5 8 3 3 4 3 3 2 4 4 4 3 7 7 9 11 10 9 11 13 10 9 7 8 9 8 8 7 9
19 18 17 16 15 15 5 2 5 9 4 8 4 3 3 2 7 2 7 5 7 6 6 4 1 4 4 4 4 4 3 1 3 3 4 5 3 1 8 6 8 10 11 10 9 12 13 12 10 10 8 8 7 8
18 17 16 15 14 7 5 1 6 6 6 3 3 2 2 7 4 5 4 6 4 6 4 2 2 2 2 1 3 2 2 3 2 3 5 3 2 4 8 7 7 9 10 10 8 9 9 9 9 9 9 8 8 8
18 16 15 13 7 9 6 4 5 4 2 4 4 4 4 7 5 8 2 5 7 1 4 3 4 2 5 1 2 3 2 3 3 3 5 3 3 5 6 9 9 9 10 11 10 11 11 11 10 9 8 8 7 8
17 15 14 8 13 10 8 7 6 11 8 3 5 6 5 5 12 7 6 6 5 5 3 5 7 1 4 2 2 2 4 3 3 5 3 2 3 6 5 8 10 10 10 10 12 12 12 12 11 8 9 8 8 7
15 13 13 16 15 13 11 7 11 7 5 6 5 7 5 5 3 2 3 3 4 1 6 7 3 1 2 4 2 3 3 5 4 4 0 1 3 7 6 8 7 12 11 11 11 12 12 12 12 11 8 8 7 7
13 7 20 17 17 15 13 13 11 6 5 6 5 5 4 2 3 0 1 2 3 2 2 3 2 1 3 4 3 4 7 4 2 1 2 5 3 4 6 6 6 8 10 9 10 11 12 12 10 10 9 8 7 6
7 16 7 21 18 16 14 8 7 4 5 5 8 4 4 3 2 3 1 3 2 2 1 2 1 5 4 3 6 0 5 3 4 3 4 4 3 5 5 7 6 6 8 9 10 10 11 10 11 10 9 8 7 7
15 3 20 22 21 18 11 6 5 8 6 5 3 3 4 4 3 2 1 3 2 3 2 3 6 4 2 5 4 1 5 4 4 6 2 3 4 6 6 7 6 7 8 9 10 10 10 10 9 7 9 9 8 7
3 17 27 24 11 7 5 6 6 6 7 3 3 1 3 2 1 1 2 2 2 2 3 2 2 6 3 2 4 4 4 4 3 3 4 5 4 6 5 5 6 6 6 8 9 10 9 7 8 7 9 9 5 7
13 14 23 14 7 7 5 5 4 6 4 3 4 2 2 3 2 0 2 3 2 1 4 4 6 1 3 3 3 6 4 4 6 6 4 6 6 6 6 5 6 4 6 5 8 7 6 5 5 6 6 6 4 6
26 24 21 14 5 6 6 4 2 6 4 3 3 3 2 2 1 2 3 4 3 3 6 3 4 4 4 4 4 4 5 5 6 7 5 3 5 4 4 4 4 5 5 6 6 10 4 6 5 7 6 7 7 7
13 7 9 6 5 8 6 2 5 3 5 4 2 2 2 2 3 3 3 3 5 2 1 4 4 5 4 3 3 3 4 3 3 4 6 7 3 3 4 4 2 4 5 5 5 5 8 6 7 5 5 6 6 7
5 10 4 4 7 5 6 4 5 3 4 3 3 2 2 1 2 2 2 4 2 4 4 4 4 3 2 4 4 3 3 3 4 5 11 10 5 5 5 6 5 5 5 5 6 5 5 7 8 4 4 6 9 7
13 4 5 4 8 7 3 1 4 3 5 3 1 3 2 1 3 2 1 3 4 4 4 4 4 4 4 4 2 3 3 3 2 3 5 4 5 6 6 5 4 5 5 5 5 5 5 11 10 8 6 7 7 6
9 8 6 5 6 6 3 3 3 4 4 2 2 2 1 2 2 4 2 3 4 1 2 3 2 2 3 2 2 3 2 1 2 3 4 4 5 5 5 5 5 4 5 5 5 5 5 5 10 6 6 6 7 6
9 6 4 6 2 6 5 4 3 3 4 2 3 0 2 1 2 1 3 4 2 2 3 2 1 3 4 3 2 2 1 1 1 4 4 2 4 5 5 4 4 5 4 4 4 6 6 6 6 6 6 6 8 6
8 3 3 3 3 5 4 6 4 5 4 3 1 1 2 3 3 5 4 4 3 3 3 3 2 3 3 2 4 1 2 2 1 2 4 2 2 4 4 5 6 6 3 2 6 7 8 8 7 7 6 7 14 9
7 3 3 3 4 7 7 5 3 4 4 5 4 3 3 3 4 6 3 3 3 3 3 2 1 2 2 2 1 1 1 1 3 4 5 5 5 4 5 5 6 6 7 6 6 8 8 7 7 7 7 6 5 5
4 2 7 4 5 2 7 4 4 4 4 3 5 4 9 8 6 4 4 3 3 2 2 1 0 1 1 1 1 1 3 2 4 4 3 3 4 4 3 4 5 15 8 7 9 7 7 7 8 8 7 6 5 3
4 4 5 5 4 5 4 4 4 2 3 4 5 4 5 4 3 3 2 2 2 3 2 1 2 2 2 2 1 1 0 1 4 5 3 3 4 4 2 4 5 5 3 4 14 14 12 7 5 0 2 4 5 3
4 0 5 3 5 4 2 2 2 0 1 2 1 2 2 3 3 1 2 2 3 3 3 3 2 3 2 2 2 4 2 3 3 3 2 5 5 5 7 7 6 4 2 3 4 5 12 6 6 5 5 4 4 3
2 3 6 6 5 2 2 2 2 2 3 3 3 3 2 3 4 2 3 3 3 3 4 1 1 2 3 2 2 1 3 2 4 6 6 7 8 8 8 7 3 0 1 2 2 2 3 3 3 4 5 6 7 7
3 4 5 6 3 1 2 3 1 3 4 3 3 2 4 3 3 4 4 5 4 2 6 4 3 3 5 3 3 3 6 2 4 5 8 8 8 7 6 2 2 2 1 1 2 2 3 3 3 4 4 5 5 5
4 3 5 7 4 0 1 4 5 2 3 2 2 1 2 2 6 4 2 2 4 5 5 5 4 3 4 5 5 4 3 3 8 11 13 15 12 4 3 3 3 3 2 1 1 1 2 2 2 3 4 5 5 5
Wind_Direction
315 318 320 316 315 316 316 319 314 317 319 320 321 323 338 89 235 221 236 177 182 218 268 211 246 253 267 236 267 287 354 337 15 50 78 296 221 269 2 218 229 47 21 330 47 53 329 349 18 83 244 313 292 326
315 322 318 312 312 312 313 313 314 315 317 319 325 8 340 326 303 175 244 148 128 223 248 227 239 265 227 266 288 212 209 215 188 85 303 92 266 352 177 278 150 360 157 283 141 224 238 336 96 222 248 289 323 319
310 310 313 316 314 310 309 311 314 314 317 320 337 333 335 336 338 338 233 144 120 253 302 353 355 352 60 340 257 287 260 164 162 166 174 232 247 159 241 53 108 28 15 13 193 110 124 109 72 18 278 274 304 306
301 304 305 306 304 305 307 309 312 314 318 336 334 335 335 329 322 350 168 185 219 56 282 279 317 18 337 3 5 113 321 347 117 115 181 226 230 21 63 73 71 348 340 331 108 47 254 188 51 341 339 330 328 326
292 295 298 298 301 303 306 308 310 313 327 332 336 333 330 328 29 97 83 29 45 126 218 274 312 339 354 347 307 297 227 233 104 31 234 249 41 36 70 76 55 355 352 341 330 9 303 296 350 349 338 333 331 323
286 288 290 294 298 302 304 305 307 315 324 333 335 336 340 50 126 78 122 49 4 359 289 322 297 356 335 341 18 14 10 10 145 150 129 56 33 3 82 79 26 5 346 38 333 315 294 302 314 360 327 326 317 333
282 285 291 295 298 299 300 301 304 316 335 337 338 350 97 98 78 89 107 306 344 120 259 318 337 354 332 327 2 2 10 28 27 59 61 58 22 38 52 48 352 353 342 356 350 333 346 1 319 320 321 320 320 305
278 282 288 291 294 296 296 302 302 331 338 336 20 99 97 107 114 46 344 11 82 132 54 52 293 28 8 339 322 353 355 9 23 71 63 60 32 45 63 353 355 353 338 352 341 332 322 317 320 321 320 322 329 330
275 279 284 288 291 292 299 272 320 338 344 357 134 105 61 38 41 280 8 68 48 60 103 72 64 301 353 351 290 339 13 29 316 69 58 75 41 47 335 348 346 345 347 326 328 333 341 341 335 333 329 331 330 326
272 276 279 282 284 290 212 265 342 353 30 104 65 64 20 332 303 53 17 27 22 352 25 76 285 310 18 351 301 345 10 56 59 50 90 74 91 125 353 331 339 337 335 338 342 344 340 339 337 335 328 318 315 317
268 269 271 274 279 236 161 52 12 20 75 47 64 132 239 345 50 26 42 57 335 30 12 295 118 279 330 39 273 73 281 255 75 84 92 66 74 353 342 336 333 337 335 332 324 317 323 320 320 321 325 321 319 321
265 266 267 267 226 150 124 66 45 64 95 151 125 74 44 37 31 70 355 343 48 52 332 10 306 231 300 344 57 325 303 348 71 63 72 69 45 312 338 335 331 335 334 332 332 326 325 326 322 317 315 315 316 314
266 266 264 242 148 127 96 75 92 118 113 61 52 52 31 329 43 54 342 332 352 351 348 348 318 318 321 37 299 24 9 25 69 48 74 85 332 335 326 335 340 336 334 334 336 338 334 328 327 325 319 319 318 316
264 262 275 146 122 104 89 106 126 102 70 62 46 41 55 19 75 158 182 216 272 13 339 327 280 326 300 352 333 36 346 27 52 50 55 251 327 338 333 333 333 335 336 333 337 332 329 330 324 321 324 322 325 329
257 230 129 117 111 104 108 103 90 52 57 66 44 59 68 125 57 241 261 332 278 206 8 349 302 99 325 45 21 25 22 26 70 209 283 321 285 309 309 325 304 325 330 329 333 328 324 323 322 319 327 325 332 332
187 124 118 119 116 126 116 82 42 73 61 66 42 86 129 107 350 360 321 268 237 281 37 61 27 39 5 103 45 12 99 225 255 246 266 301 298 294 293 308 301 303 318 329 323 320 317 319 321 318 317 331 337 343
133 95 133 119 116 97 65 76 60 54 78 63 60 29 70 78 150 258 263 268 296 46 56 80 57 234 321 37 6 157 176 228 253 294 257 279 274 292 302 307 310 319 322 325 319 318 312 310 315 328 338 330 331 339
78 134 130 131 122 79 52 41 82 75 74 93 95 102 71 75 118 316 291 297 33 42 70 163 105 47 140 171 282 247 258 253 239 263 292 285 286 293 293 301 303 304 308 318 313 307 309 327 335 333 323 324 342 348
139 135 133 123 97 92 79 46 38 92 79 92 85 112 103 110 123 304 320 331 71 63 96 45 69 176 248 228 231 297 282 279 299 303 257 271 280 284 285 296 296 295 308 299 310 306 298 309 314 326 326 336 5 344
118 117 106 88 79 87 87 57 51 88 117 133 93 115 112 97 70 14 349 12 53 63 39 59 204 219 204 234 218 276 282 295 297 293 292 280 282 267 281 286 289 299 306 310 303 332 336 332 328 331 328 357 351 336
87 106 85 73 64 61 79 92 67 88 117 90 111 116 93 33 34 12 329 337 58 119 242 216 228 248 241 247 235 267 277 285 282 286 297 294 298 327 301 293 276 314 319 312 317 330 351 321 317 325 350 335 339 330
92 123 91 64 87 78 81 7 98 95 76 101 93 64 71 68 328 298 267 55 182 220 192 196 225 222 281 287 270 213 259 282 274 294 324 319 324 322 315 302 338 320 310 303 314 327 328 322 312 352 354 347 342 327
117 88 65 75 85 61 92 303 86 32 103 134 89 86 31 338 237 327 27 218 253 230 202 201 222 204 216 277 319 287 244 236 280 300 310 309 306 306 301 324 313 305 300 301 310 317 321 325 325 340 346 341 332 327
52 56 58 68 81 107 132 69 79 94 97 98 97 99 249 232 309 46 231 256 249 270 187 228 178 317 321 349 288 261 263 203 277 294 297 305 300 299 303 290 288 274 270 281 293 304 306 297 324 319 314 315 315 312
83 12 67 73 87 118 105 113 96 92 101 116 105 149 235 12 68 37 237 267 265 244 223 221 239 220 266 279 254 251 221 170 253 295 291 256 281 299 300 295 282 278 281 279 295 308 296 296 294 294 300 300 289 292
82 5 49 120 123 110 143 115 140 135 118 117 142 99 54 96 70 247 233 226 224 209 202 199 231 281 277 240 299 246 250 209 240 250 277 241 256 275 274 298 312 312 292 312 303 293 291 289 290 287 283 291 311 335
116 124 76 28 88 107 100 80 96 108 116 149 164 143 103 86 251 249 262 222 199 216 196 165 188 222 253 289 295 201 268 193 201 233 282 280 265 248 253 273 289 287 296 293 289 283 288 299 296 284 277 275 258 247
87 144 130 144 91 43 116 103 119 137 156 163 114 159 159 188 222 225 202 221 177 141 104 16 146 179 230 251 309 339 321 343 308 302 286 264 245 260 256 271 292 307 348 323 323 320 304 288 286 280 269 267 273 254
80 117 103 73 94 62 59 106 141 145 121 145 132 171 222 226 225 184 221 181 142 102 86 24 317 18 17 2 33 311 143 101 59 20 358 296 317 302 257 314 301 296 305 325 323 329 305 305 322 210 251 272 278 283
120 354 97 70 66 73 51 7 102 237 82 113 60 34 345 297 253 204 135 125 134 178 189 169 164 124 183 139 302 328 277 182 163 147 219 261 249 291 305 298 290 289 325 326 319 320 339 21 350 359 358 352 342 359
88 99 83 54 77 35 16 344 331 60 39 43 350 123 218 291 298 227 194 181 135 108 116 145 259 205 160 186 180 186 304 280 220 252 244 254 264 266 272 271 262 249 357 332 339 350 352 346 347 347 8 10 0 17
48 48 119 100 99 322 16 49 45 65 352 46 335 344 342 19 293 268 194 128 111 160 221 172 171 237 203 203 202 219 259 232 264 263 273 272 269 253 248 227 169 134 139 31 13 8 7 352 341 354 349 351 348 351
93 63 71 107 95 342 279 82 29 22 23 27 301 238 227 199 240 264 275 204 163 179 185 191 194 181 185 197 203 224 250 225 275 302 311 307 330 196 186 185 184 179 160 139 347 338 342 333 316 317 317 322 319 318